www.pogodaiklimat.ru

Погода и климат >> Архив погоды >> Хорватия >> Комица


ПОГОДА в Комице

  • Прогноз погоды в Комице
  • Монитор погоды в Комице

АРХИВ ПОГОДЫ в Комице

Время (UTC), дата Ветер
(напр.,м/с)
 
Видим.   Явления Облачность Т
(С)
Тd
(С)
f
(%)
Тe
(С)
Тes
(С)
Комфортность P
(гПа)
Po
(гПа)
Тmin
(С)
Tmax
(С)
R
(мм)
R24
(мм)
S
(см)
07 13.09 СВ 4 30 км ясно +25.7 +13.9 48 +28 +30 жарко 1026.3 1024.0
08 13.09 С 4 20 км ясно +27.2 +14.5 46 +30 +34 душно 1026.5 1024.2
09 13.09 С 4 20 км ясно +28.4 +13.9 41 +30 +37 жарко 1026.6 1024.3
10 13.09 С 4 25 км 1/1 600 м
[Cu hum]
+28.9 +14.7 42 +31 +39 жарко 1026.7 1024.4
11 13.09 С 4 25 км 1/1 600 м
[Cu hum]
+29.0 +13.9 40 +31 +39 жарко 1026.5 1024.2
12 13.09 С 2 25 км ясно +28.5 +13.4 39 +30 +42 жарко 1026.2 1023.9
13 13.09 С 4 25 км ясно +27.6 +15.3 47 +30 +37 жарко 1025.6 1023.3
18 13.09 С 1 25 км ясно +23.5 +18.0 71 +28 +28 душно 1024.8 1022.5 +29.4
19 13.09 С 1 25 км ясно +22.5 +18.7 79 +28 +28 душно 1024.9 1022.6
20 13.09 С 2 25 км ясно +23.2 +19.5 80 +30 +30 очень
душно
1024.8 1022.5
03 14.09 С 1 40 км ясно +21.2 +10.8 51 +23 +23 комфорт 1024.3 1021.9
04 14.09 С 2 40 км ясно +21.8 +12.1 54 +24 +24 комфорт 1024.2 1021.9
05 14.09 С 2 40 км ясно +21.2 +11.6 54 +23 +23 комфорт 1024.6 1022.2
06 14.09 СВ 1 50 км ясно +22.4 +12.9 55 +25 +26 комфорт 1024.8 1022.5 +21.0
07 14.09 С 2 50 км ясно +25.0 +13.6 49 +27 +31 жарко 1025.0 1022.7
08 14.09 СВ 2 50 км ясно +26.8 +12.9 42 +28 +35 жарко 1025.2 1022.9
09 14.09 СВ 4 50 км 1/0
[Ci fib]
+27.5 +14.1 44 +30 +36 жарко 1025.2 1022.9
10 14.09 С 4 50 км 3/0
[Ci fib]
+28.5 +15.2 44 +31 +39 душно 1024.8 1022.5
11 14.09 С 4 50 км 3/0
[Ci fib]
+28.4 +15.4 45 +31 +39 душно 1024.8 1022.5
12 14.09 С 2 50 км 3/0
[Ci fib]
+28.3 +14.1 42 +30 +41 жарко 1024.6 1022.3
13 14.09 С 4 50 км 1/0
[Ci fib]
+28.7 +13.7 40 +31 +37 жарко 1024.0 1021.7
18 14.09 С 1 40 км ясно +23.5 +19.0 76 +28 +28 душно 1023.2 1020.9 +28.8
19 14.09 С 1 40 км ясно +22.5 +19.3 82 +28 +28 душно 1023.1 1020.8
20 14.09 С 1 40 км ясно +21.9 +15.8 68 +26 +26 душно 1023.0 1020.7
03 15.09 С 1 40 км 3/0
[Ci fib]
+21.6 +10.9 51 +23 +23 комфорт 1022.5 1020.2
04 15.09 С 1 40 км 1/0
[Ci fib]
+21.1 +11.5 54 +23 +23 комфорт 1022.4 1020.1
05 15.09 С 2 40 км 3/0
[Ci sp]
+21.2 +12.0 56 +23 +23 комфорт 1022.8 1020.5
06 15.09 С 2 50 км 3/0
[Ci fib]
+21.6 +13.1 58 +24 +25 комфорт 1022.8 1020.5 +21.0
07 15.09 С 2 50 км 3/0
[Ci sp]
+25.3 +13.8 49 +28 +31 жарко 1023.1 1020.8
08 15.09 Ю 2 50 км 3/0
[Ci sp]
+27.0 +14.6 47 +30 +36 душно 1023.4 1021.1
09 15.09 Ю 2 50 км 3/0
[Ci fib]
+26.6 +15.0 49 +29 +38 жарко 1023.5 1021.2
10 15.09 Ю 2 50 км 3/0
[Ci sp]
+27.5 +15.6 48 +30 +41 жарко 1023.3 1021.0
11 15.09 Ю 2 50 км 3/0
[Ci sp]
+27.8 +16.5 50 +31 +43 душно 1023.0 1020.7
12 15.09 Ю 2 50 км 3/1 600 м
[Cu hum Ci sp]
+26.6 +17.0 56 +31 +40 душно 1022.7 1020.4
13 15.09 Ю 2 50 км 3/1 600 м
[Cu hum Ci sp]
+26.6 +17.2 56 +31 +38 душно 1022.3 1020.0
18 15.09 С 1 40 км 3/0
[Ci fib]
+22.6 +16.9 70 +27 +27 душно 1020.8 1018.5 +27.9
19 15.09 С 1 40 км 3/0
[Ci fib]
+22.3 +17.9 76 +27 +27 душно 1020.8 1018.5
20 15.09 С 1 40 км 3/0
[Ci fib]
+22.2 +15.8 67 +26 +26 душно 1020.8 1018.5
03 16.09 С 2 30 км 3/0
[Ci fib]
+18.6 +16.0 85 +20 +20 1018.8 1016.4
04 16.09 СВ 2 30 км 3/0
[Ci fib]
+17.9 +16.1 89 +18 +18 1018.3 1015.9
05 16.09 С 2 30 км 4/1 600 м
[Cu hum Ci sp]
+17.9 +16.1 89 +18 +18 1018.5 1016.1
06 16.09 С 1 30 км 6/3 600 м
[Cu hum Ci sp]
+19.4 +17.5 89 +23 +23 комфорт 1018.5 1016.2 +17.7
07 16.09 Ю 2 40 км 6/3 600 м
[Cu hum Ci sp]
+23.2 +19.2 78 +30 +32 очень
душно
1018.7 1016.4
08 16.09 С 2 40 км 6/1 600 м
[Cu hum Ci sp]
+24.8 +19.0 70 +30 +35 душно 1018.6 1016.3
09 16.09 С 4 40 км 8/1 600 м
[Cu hum Cs]
+26.0 +18.1 62 +31 +35 очень
душно
1018.6 1016.3
10 16.09 С 4 40 км 6/0
[Cs]
+26.7 +15.2 49 +29 +36 жарко 1018.6 1016.3
11 16.09 С 2 40 км 8/0
[Cs]
+27.5 +13.1 41 +29 +39 жарко 1018.3 1016.0
12 16.09 С 2 40 км 6/0
[Cs]
+28.6 +12.8 38 +30 +40 жарко 1017.7 1015.4
13 16.09 Ю 2 40 км 8/0
[Cs]
+28.9 +11.7 34 +30 +37 жарко 1017.3 1015.0
18 16.09 С 2 30 км 3/0
[Ci sp]
+21.2 +13.9 63 +24 +24 комфорт 1015.8 1013.5 +29.1
19 16.09 С 2 30 км 1/0
[Ci sp]
+19.8 +12.5 63 +22 +22 комфорт 1016.0 1013.7
20 16.09 С 1 30 км ясно +19.3 +13.0 67 +22 +22 комфорт 1016.1 1013.8
03 17.09 С 1 25 км 3/3 600 м
[Cu med, cong]
+18.0 +16.2 89 +19 +19 1015.0 1012.6
04 17.09 С 1 30 км ясно +18.1 +15.8 86 +19 +19 1014.7 1012.3
05 17.09 С 2 30 км 1/1 600 м
[Cu hum Ci fib]
+18.4 +11.6 65 +19 +19 1014.9 1012.5
06 17.09 С 2 30 км 1/1 600 м
[Cu hum Ci fib]
+19.6 +12.8 65 +22 +23 комфорт 1014.9 1012.6 +17.8
07 17.09 Ю 1 30 км ясно +23.3 +14.0 56 +27 +31 душно 1015.1 1012.8
08 17.09 Ю 1 30 км 1/0
[Ci fib]
+24.4 +16.0 59 +28 +35 душно 1015.2 1012.9
09 17.09 Ю 2 40 км 1/1 600 м
[Cu hum Ci fib]
+25.6 +17.1 59 +29 +38 душно 1015.6 1013.3
11 17.09 Ю 2 40 км ясно +25.4 +19.3 69 +31 +43 очень
душно
1015.2 1012.9
12 17.09 Ю 2 40 км 3/0
[Ci fib]
+25.5 +18.8 66 +30 +41 душно 1015.0 1012.7
13 17.09 Ю 2 40 км 3/1 600 м
[Cu hum Ci fib]
+26.2 +15.3 51 +29 +37 жарко 1014.7 1012.4
18 17.09 С 1 30 км ясно +22.1 +15.7 67 +26 +26 душно 1013.2 1010.9 +26.4
19 17.09 С 1 30 км ясно +21.4 +15.7 70 +25 +25 комфорт 1013.4 1011.1
20 17.09 С 2 30 км ясно +21.0 +14.4 66 +25 +25 комфорт 1013.4 1011.1
03 18.09 С 1 30 км 3/0
[Ci sp]
+20.4 +15.0 71 +24 +24 комфорт 1013.2 1010.9
04 18.09 С 1 30 км 3/0
[Ac trans]
+20.6 +15.5 73 +25 +25 комфорт 1013.4 1011.1
05 18.09 С 1 30 км 4/3 600 м
[Cu med, cong Ac trans Ci sp]
+20.7 +15.5 72 +25 +25 комфорт 1013.5 1011.2
06 18.09 С 1 30 км 8/5 600 м
[Cu med, cong Ac cuf]
+22.7 +16.0 66 +27 +27 душно 1013.7 1011.4 +20.4
07 18.09 Ю 1 30 км 8/6 600 м
[Sc Ac trans]
+24.2 +16.7 63 +28 +29 душно 1014.1 1011.8
08 18.09 Ю 2 30 км 8/8 600 м
[Cu med, cong]
+24.6 +18.1 67 +29 +30 душно 1014.7 1012.4
09 18.09 Ю 1 30 км 6/5 600 м
[Cu med, cong Ac trans]
+25.6 +18.9 66 +31 +35 очень
душно
1014.7 1012.4
10 18.09 Ю 2 30 км 4/3 600 м
[Cu med, cong Ci sp]
+27.7 +18.5 57 +33 +40 очень
душно
1014.4 1012.1
11 18.09 Ю 2 30 км 6/5 600 м
[Cu med, cong Ac cuf]
+27.7 +18.2 56 +32 +37 очень
душно
1014.6 1012.3
12 18.09 Ю 2 30 км 4/4 600 м
[Cu med, cong]
+26.9 +19.6 64 +33 +39 очень
душно
1014.5 1012.2
13 18.09 Ю 2 30 км 6/3 600 м
[Cu med, cong Ac trans Ci sp]
+27.1 +20.1 66 +33 +38 очень
душно
1014.2 1011.9
18 18.09 С 1 30 км 3/0
[Ac trans Ci sp]
+23.1 +19.4 80 +30 +30 очень
душно
1014.3 1012.0 +28.0
19 18.09 С 1 30 км 3/0
[Ci sp]
+21.6 +17.8 79 +26 +26 душно 1014.7 1012.4
20 18.09 С 1 30 км 3/0
[Ci sp]
+21.3 +17.1 77 +25 +25 комфорт 1015.0 1012.7
03 19.09 Ю 1 30 км 3/0
[Ac trans Ci sp]
+21.2 +15.9 72 +25 +25 комфорт 1014.2 1011.9
04 19.09 С 2 25 км 3/0
[Ac trans Ci sp]
+21.5 +16.4 73 +25 +25 комфорт 1014.0 1011.7
05 19.09 С 2 25 км 8/3 600 м
[Cu med, cong Ac und Cs]
+21.8 +16.7 73 +26 +26 душно 1014.0 1011.7
06 19.09 С 2 25 км 9/3 600 м
[Cu med, cong Ac As Cs]
+23.0 +15.1 61 +27 +27 душно 1014.1 1011.8 +20.9
07 19.09 С 4 10 км гроза, ливневой дождь 10/5 600 м
[Cb cap As op]
+22.7 +16.5 68 +27 +27 душно 1015.1 1012.8
08 19.09 С 1 5000 м гроза, ливневой дождь 10/4 600 м
[Cb cap As op]
+19.6 +18.0 90 +23 +24 комфорт 1015.2 1012.9
09 19.09 С 2 10 км слаб. ливневой дождь, в посл. час гроза 10/1 600 м
[Cu hum As op]
+19.3 +17.6 90 +22 +23 комфорт 1015.6 1013.3
10 19.09 С 1 15 км слаб. дождь {гроза} 10/6 600 м
[Frnb As op]
+20.2 +18.3 89 +25 +26 комфорт 1016.1 1013.8
11 19.09 С 1 15 км слаб. дождь {гроза} 10/3 600 м
[Cu med, cong As op]
+20.8 +18.3 86 +26 +28 душно 1015.7 1013.4
12 19.09 С 2 20 км в посл. час дождь {гроза} 10/4 600 м
[Cu med, cong As op]
+21.6 +18.1 80 +26 +27 душно 1015.5 1013.2 6
13 19.09 С 2 25 км 8/3 600 м
[Cu med, cong Ac trans Cs]
+22.9 +17.2 70 +28 +32 душно 1015.2 1012.9
18 19.09 С 2 30 км 8/3 600 м
[Cu med, cong Ac trans]
+20.1 +15.0 72 +23 +23 комфорт 1016.5 1014.2 +23.5 6
19 19.09 С 2 30 км 6/0
[Ac trans]
+20.5 +10.8 54 +23 +23 комфорт 1017.4 1015.1
20 19.09 СВ 4 40 км 3/3 600 м
[Cu hum As op]
+20.2 +8.9 48 +22 +22 комфорт 1017.9 1015.6
03 20.09 С 4 40 км ясно +17.9 +7.0 49 +18 +18 1020.0 1017.6
04 20.09 СВ 4 40 км ясно +17.6 +5.6 45 +17 +17 1020.1 1017.7
05 20.09 СВ 4 40 км ясно +17.1 +6.1 48 +17 +17 1020.7 1018.3
06 20.09 СВ 4 40 км ясно +17.6 1020.6 1018.2 +17.0

 

Местоположение метеостанции Комица (Хорватия): широта 43.05 долгота 16.10 высота над уровнем моря 20 м.

В архиве по умолчанию представлена погода в Комице за последнюю неделю. Архивные данные за месяц целиком и за предыдущие месяцы, начиная с января 2011 года, Вы можете получить, выбрав интересующий диапазон дат из раскрывающегося списка и нажав кнопку "Ввод!".


*Определитесь, кто Вы:
робот инопланетянин человек

Внимание! Время в таблицах - всемирное. Для получения местного времени необходимо прибавить поправку, которая равна 1 ч.

Смотрите также архив погоды в соседних городах и на ближайших метеорологических станциях:

Погода в Хваре (Хорватия) (31 км)
Погода в Сплит аэропорту (Хорватия) (56 км)
Погода в Сплите (Хорватия) (59 км)
Погода в Ластово (Хорватия) (72 км)
Погода на Палагруже (Хорватия) (74 км)
Погода в Шибенике (Хорватия) (77 км)
Погода в Макарска (Хорватия) (79 км)
Погода в Плоче (Хорватия) (108 км)
Погода в Ливно (Босния и Герцеговина) (114 км)
Погода в Неуме (Босния и Герцеговина) (123 км)

Пояснения к столбцам:

Ветер - указаны скорость ветра в м/с - средняя за 10 мин, порывы в срок и между сроками (в фигурных скобках) и направление, откуда дует ветер: С - северный, СВ - северо-восточный, В - восточный, ЮВ - юго-восточный, Ю - южный, ЮЗ - юго-западный, З - западный, СЗ - северо-западный.
Видимость - горизонтальная дальность видимости в метрах или километрах. При видимости от 1 до 10 км при отсутствии осадков обычно наблюдается дымка, при ухудшении видимости до 1 км и менее - туман. В сухую погоду видимость может ухудшаться дымом, пылью или мглою.
Явления - указаны атмосферные явления, наблюдавшиеся в срок или в последний час перед сроком; фигурными скобками обозначены явления, наблюдавшиеся между сроками (за 1-3 часа до срока); квадратными скобками обозначены град или гололедные отложения с указанием их диаметра в мм.
Облачность - указаны через наклонную черту общая и нижняя облачность в баллах и высота нижней границы облаков в метрах; квадратными скобками обозначены формы облаков: Ci - перистые, Cs - перисто-слоистые, Cc - перисто-кучевые, Ac - высококучевые, As - высокослоистые, Sc - слоисто-кучевые, Ns - слоисто-дождевые, Cu - кучевые, Cb - кучево-дождевые. Подробнее классификацию облаков см. в Атласе облаков (PDF).
T - Температура воздуха - температура, измеренная на высоте 2 м над землей.
Td - Температура точки росы - температура, при понижении до которой содержащийся в воздухе водяной пар достигнет насыщения.
f - Относительная влажность воздуха - влажноcть воздуха, измеренная на высоте 2 м над землей.
Te - Эффективная температура - температура, которую ощущает одетый по сезону человек в тени. Характеристика душности погоды. При расчете учитывается влияние влажности воздуха и скорости ветра на теплоощущения человека.
Tes - Эффективная температура на солнце - температура, которую ощущает человек, с поправкой на солнечный нагрев. Характеристика знойности погоды. Зависит от высоты солнца над горизонтом, облачности и скорости ветра. Ночью, в пасмурную погоду, а также при ветре 12 м/с и более поправка равна нулю.
P - Атмосферное давление - приведенное к уровню моря атмосферное давление.
Po - Атмосферное давление - измеренное на уровне метеостанции атмосферное давление.
Tmin - Минимальная температура - минимум температуры воздуха на высоте 2 м над землей.
Tmax - Максимальная температура - максимум температуры воздуха на высоте 2 м над землей.
R - Количество осадков - Количество выпавших осадков за период времени, мм. При наведении курсора мыши на число - период времени, за который выпало указанное количество осадков.
R24 - Количество осадков - Количество выпавших осадков за 24 часа, мм.
S - Снежный покров - Высота снежного покрова, см. При наведении курсора мыши на число - состояние снежного покрова и степень покрытия местности в баллах.